Regional Weather Roundup
Issued by NWS

Home | Current Version | Previous Version | Graphics & Text | Print | Product List | Glossary On
Versions: 1 2 3 4 5 6 7 8 9 10 11 12 13 14 15 16 17 18 19 20 21 22 23 24 25 26 27 28 29 30 31 32 33 34 35 36 37 38 39 40 41 42 43 44 45 46 47 48 49 50
000
ASUS43 KMKX 250700
RWRWI

WISCONSIN REGIONAL WEATHER ROUNDUP
NATIONAL WEATHER SERVICE MILWAUKEE/SULLIVAN WI
200 AM CDT MON SEP 25 2017

NOTE: "FAIR" INDICATES FEW OR NO CLOUDS BELOW 12,000 FEET WITH NO
SIGNIFICANT WEATHER AND/OR OBSTRUCTIONS TO VISIBILITY.

WIZ001-002-006>008-014>016-023>028-250800-
NORTHWEST WISCONSIN

CITY           SKY/WX    TMP DP  RH WIND       PRES   REMARKS
SUPERIOR ARPT  CLOUDY    66  66 100 SW6       29.90R
ASHLAND        CLOUDY    70  64  81 W7        29.90R
HAYWARD        CLOUDY    71  64  78 SW6       29.93S
SIREN          CLOUDY    67  66  96 W6        29.93R
CUMBERLAND     RAIN      68  63  83 SW5       29.95R
RICE LAKE      CLOUDY    69  66  90 CALM      29.95S
CHETEK         CLOUDY    70  65  83 CALM      29.93F
LADYSMITH      CLEAR     71  62  73 S5        29.95S
EAU CLAIRE     NOT AVBL
MENOMONIE      PTCLDY    72  64  75 W5        29.94R
NEW RICHMOND   LGT RAIN  68  66  95 CALM      29.95S
OSCEOLA        CLOUDY    68  68 100 W3        29.98R
$$

WIZ003>005-009-010-017-018-250800-
NORTH CENTRAL WISCONSIN

CITY           SKY/WX    TMP DP  RH WIND       PRES   REMARKS
MANITOWISH WTR NOT AVBL
ARBOR VITAE    CLEAR     72  62  71 S8        29.96S
WOODRUFF       CLEAR     72  62  71 S8        29.96S
RHINELANDER    CLEAR     70  61  73 S6        29.98F
EAGLE RIVER    CLEAR     66  58  74 CALM      29.97S
LAND O LAKES   CLEAR     68  59  73 S3        29.98S
PHILLIPS       PTCLDY    70  62  76 S6        29.95R
TOMAHAWK       CLEAR     63  58  85 CALM      29.97S
MEDFORD        CLEAR     64  59  84 S7        29.96S
MERRILL        CLEAR     67  61  80 S6        29.98S
$$

WIZ029-030-035-036-043>047-250800-
CENTRAL WISCONSIN

CITY           SKY/WX    TMP DP  RH WIND       PRES   REMARKS
WAUSAU         CLEAR     67  60  78 SE5       29.96S
MOSINEE        CLEAR     64  59  82 S3        29.99S
MARSHFIELD     CLEAR     66  58  75 S6        29.97R
STEVENS POINT  CLEAR     61  59  95 CALM      29.98S
WAUPACA        CLEAR     65  64  93 CALM      29.98S
WAUTOMA        CLEAR     62  60  93 CALM      29.99S
WISC RAPIDS    CLEAR     66  60  81 CALM      29.98S
CAMP DOUGLAS   NOT AVBL
$$

WIZ011>013-019>022-031-037>040-048>050-250800-
NORTHEAST WISCONSIN

CITY           SKY/WX    TMP DP  RH WIND       PRES   REMARKS
ANTIGO         CLEAR     64  61  91 S6        30.00F
SHAWANO        CLEAR     70  63  78 CALM      29.98R
OCONTO         CLEAR     70  59  68 SW3       29.98R
STURGEON BAY   CLEAR     70  60  70 S7        29.99S
GREEN BAY      CLEAR     70  62  76 S6        29.98S
MANITOWOC      CLEAR     67  62  84 CALM      30.00S
APPLETON       CLEAR     68  55  64 S5        29.98S
CLINTONVILLE   NOT AVBL
OSHKOSH        CLEAR     65  60  84 S6        29.98S
$$

WIZ032>034-041-042-053>061-250800-
SOUTHWEST WISCONSIN

CITY           SKY/WX    TMP DP  RH WIND       PRES   REMARKS
LA CROSSE      CLEAR     75  65  70 S7        29.93R
SPARTA         CLEAR     65  61  86 CALM      29.96R
VIROQUA        CLEAR     69  63  81 S5        29.98S
BOSCOBEL       CLEAR     64  62  93 CALM      29.96S FOG
PRAIRIE DU CHI CLEAR     69  61  75 CALM      29.95S
PLATTEVILLE    CLEAR     69  63  79 SE6       29.98S
$$

WIZ056-057-062-063-064-067-068-250800-
SOUTH CENTRAL WISCONSIN

CITY           SKY/WX    TMP DP  RH WIND       PRES   REMARKS
REEDSBURG      CLOUDY    66  63  90 E3        29.97S
BARABOO/DELLS  PTCLDY    68  59  72 S6        29.98S
LONE ROCK      NOT AVBL
MINERAL POINT  CLEAR     70  63  78 SE5       29.99S
MADISON        CLEAR     65  61  87 CALM      29.98S
MIDDLETON      CLEAR     64  62  93 CALM      30.00S
WATERTOWN      CLEAR     65  62  89 CALM      30.00R
MONROE         CLEAR     72  57  60 SE5       29.99S
JANESVILLE     CLEAR     64  63  94 CALM      29.98S
$$

WIZ051-052-058>065-066-070>072-250800-
SOUTHEAST WISCONSIN

CITY           SKY/WX    TMP DP  RH WIND       PRES   REMARKS
MILWAUKEE      CLEAR     69  63  81 CALM      29.99F
WAUKESHA       CLEAR     64  59  82 CALM      30.02S
MILWAUKEE/TIMM CLEAR     64  57  77 CALM      30.01S
RACINE         CLEAR     70  67  90 S5        30.01S
BURLINGTON     CLEAR     60  60 100 CALM      30.00S FOG
KENOSHA        CLEAR     71  63  75 SE5       30.00S
FOND DU LAC    CLEAR     67  59  75 S6        29.99S
SHEBOYGAN      CLEAR     62  61  96 CALM      30.00S
WEST BEND        N/A     61  61 100 CALM      30.01S
JUNEAU         CLEAR     67  60  76 CALM      30.01S
$$

LSZ147-162-250800-
LAKE SUPERIOR

STATION/POSITION TIME  TEMP    WIND        PRES    WAVE
                       AIR SEA DIR/SP/G            HT/PER
                 (UTC) (F)     (DEG/KT/KT) (MB)    (FT/S)
W MID LAKE BUOY  0550   62 56  230/  6/  8 1010.6F   1
DEVILS ISLAND    0600   68     190/  4/  5 1011.0S
PORT WING        0630   67     190/  6/  7 1012.2R
SAXON HARBOR     0640   75     200/  6/ 10 1011.2R
$$

LMZ867-665-643>646-250800-
LAKE MICHIGAN

STATION/POSITION TIME  TEMP    WIND        PRES    WAVE
                       AIR SEA DIR/SP/G            HT/PER
                 (UTC) (F)     (DEG/KT/KT) (MB)    (FT/S)
N MID LAKE BUOY  0550   70 67  170/ 10/ 12 1015.6S   1/ 3
NORTHPORT PIER   0640   70     150/  5/  9 1014.9S
KEWAUNEE LAKESHO 0630   64     190/  3/  4 1014.8S
SHEBOYGAN LAKESH 0600   72     190/  9/  9 1015.2F
PORT WASHINGTON  0640   69     260/  2/  4 1016.6S
ATWATER BUOY     0509   66 60  180/  6/  8 1016.0F
MILWAUKEE LAKESH 0640   72     200/  2/  3   N/A
S MID LAKE BUOY  0550   74 71  130/  6/  8 1015.9F   0
KENOSHA   LAKESH 0600   73     180/  8/  9 1015.6
$$

TC  - TEMPERATURE IN CELSIUS
VSB - VISIBILITY IN STATUTE MILES
WCI - WIND CHILL INDEX
HX  - HEAT INDEX




USA.gov is the U.S. government's official web portal to all federal, state and local government web resources and services.